Regional Weather Roundup
Issued by NWS

Home | Current Version | Previous Version | Graphics & Text | Print | Product List | Glossary Off
Versions: 1 2 3 4 5 6 7 8 9 10 11 12 13 14 15 16 17 18 19 20 21 22 23 24 25 26 27 28 29 30 31 32 33 34 35 36 37 38 39 40 41 42 43 44 45 46 47 48 49 50

000
ASUS43 KIND 110909
RWRIN

WEATHER ROUNDUP FOR INDIANA
NATIONAL WEATHER SERVICE INDIANAPOLIS IN
400 AM EST THU FEB 11 2016

NOTE: "FAIR" INDICATES FEW OR NO CLOUDS BELOW 12,000 FEET WITH NO
SIGNIFICANT WEATHER AND/OR OBSTRUCTIONS TO VISIBILITY.

* - STATION DOES NOT REPORT WEATHER SUCH AS PRECIPITATION OR FOG.

+ - STATION NOT QUALITY CONTROLLED BY THE NATIONAL WEATHER SERVICE.
    USE DATA WITH CAUTION...ESPECIALLY DEWPOINT AND RELATIVE
    HUMIDITY OBSERVATIONS.

INZ001>003-010>013-019-020-111000-
NORTHWEST INDIANA

CITY           SKY/WX    TMP DP  RH WIND       PRES   REMARKS
GARY /AIRPORT/ CLEAR     15   0  52 W9        30.20R WCI   3
KNOX *+        PTCLDY    12   5  73 W9        30.15S WCI   0
LA PORTE +     MOCLDY    17  10  74 W8        30.14S WCI   7
MICHIGAN CITY+ FLURRIES  19  10  68 NW9       30.15S WCI   9
MONTICELLO +   CLEAR     10   2  70 W3        30.17R
RENSSELAER +   CLEAR     12   3  67 W6        30.19R WCI   3
VALPARAISO     CLOUDY    12   5  73 W7        30.16R WCI   1

$$

LMZ046-743>745-111000-
SOUTHERN LAKE MICHIGAN

STATION/POSITION TIME  TEMP    WIND        PRES    WAVE
                       AIR SEA DIR/SP/G            HT
                 (UTC) (F)     (DEG/KT/KT) (MB)    (FT)
BURNS HARBOR     0901   18     320/ 13/ 20 1022.0R
MICHIGAN CITY    0800   18     270/ 17/ 21   N/A

$$

INZ004-005-014>016-021>024-111000-
NORTH CENTRAL INDIANA

CITY           SKY/WX    TMP DP  RH WIND       PRES   REMARKS
GOSHEN         LGT SNOW  14  10  84 W8        30.11R FOG     WCI   3
LOGANSPORT +   CLEAR     10   1  67 NW5       30.17R WCI   2
PERU/GRISSOM   PTCLDY     6   1  78 W6        30.13R WCI  -4
ROCHESTER +    PTCLDY    14   3  62 W7        30.14R WCI   4
SOUTH BEND     CLOUDY    13  10  88 W6        30.12R WCI   4
WARSAW +       MOCLDY    12   9  85 W6        30.12R WCI   3

$$

INZ006>009-017-018-025>027-111000-
NORTHEAST INDIANA

CITY           SKY/WX    TMP DP  RH WIND       PRES   REMARKS
ANGOLA *+      CLOUDY    12  10  92 W3        30.07R
AUBURN +       CLOUDY    16  12  86 W6        30.11R WCI   7
FORT WAYNE     MOCLDY    15   8  73 W7        30.13R WCI   5
HUNTINGTON +   CLEAR      8   1  75 W5        30.13R WCI  -1

$$

INZ028-029-035-036-043>045-051>053-111000-
WEST CENTRAL INDIANA

CITY           SKY/WX    TMP DP  RH WIND       PRES   REMARKS
GREENCASTLE +  CLOUDY    14   3  62 N3        30.16R
LAFAYETTE      CLOUDY    10   5  80 NW6       30.18R WCI   0
TERRE HAUTE    MOCLDY    13   7  77 NW3       30.20R

$$

INZ030>032-037>040-046>048-054>057-064-065-111000-
CENTRAL INDIANA

CITY           SKY/WX    TMP DP  RH WIND       PRES   REMARKS
FRANKFORT +    CLOUDY    12   3  68 NW5       30.16S WCI   4
GREENWOOD *+   CLOUDY    14  10  85 CALM      30.15S
INDIANAPOLIS   CLOUDY    14   6  70 NW6       30.14S WCI   5
-EAGLE CREEK   CLOUDY    15   7  70 N3        30.14S
KOKOMO *+      PTCLDY     9   1  72 NW6       30.15R WCI  -1
MARION +       CLEAR      5  -4  68 W5        30.15R WCI  -4
MT COMFORT *+  CLOUDY    14   7  73 W5        30.14S WCI   6
SHELBYVILLE    CLOUDY    15   7  70 NW5       30.15R WCI   8
ZIONSVILLE +   CLOUDY    12   7  81 CALM      30.14S

$$

INZ033-034-041-042-049-050-058-059-111000-
EAST CENTRAL INDIANA

CITY           SKY/WX    TMP DP  RH WIND       PRES   REMARKS
MUNCIE         CLEAR     10   5  80 W7        30.14R WCI  -1

$$

INZ060-061-067>069-081>083-085>088-111000-
SOUTHWEST INDIANA

CITY           SKY/WX    TMP DP  RH WIND       PRES   REMARKS
EVANSVILLE     CLOUDY    24  17  74 NE5       30.20R WCI  18
HUNTINGBURG *+ CLOUDY    21  14  73 N3        30.19R
WASHINGTON +   CLOUDY    20  13  73 N6        30.19S WCI  12

$$

INZ062-063-066-070>080-084-089>092-111000-
SOUTH CENTRAL AND SOUTHEAST INDIANA

CITY           SKY/WX    TMP DP  RH WIND       PRES   REMARKS
BEDFORD +      CLOUDY    18  12  79 CALM      30.17
BLOOMINGTON    CLEAR     11   6  81 CALM      30.16R
MADISON *+     CLEAR     10   9  92 CALM      30.18R
NORTH VERNON + CLOUDY    10   7  85 CALM      30.17R
SEYMOUR +      PTCLDY    16   9  73 CALM      30.19R

$$




USA.gov is the U.S. government's official web portal to all federal, state and local government web resources and services.